Location: Le Tano
(47.9476°N, 3.3857°W)
Time: 08:31:15
(UTC+00:00)

Daily predictions for brighter satellites

Satellite Brightness Start Highest point End
(mag) Time Altitude Azimuth Time Altitude Azimuth Time Altitude Azimuth
Cosmos 1943 3.3 17:21:20 10° NNW 17:27:03 85° WSW 17:32:42 10° SSE
Tsikada Rocket 4.3 17:24:23 10° SSW 17:30:42 79° W 17:36:59 10° N
SJ 16-02 3.1 17:28:50 10° SE 17:31:12 14° E 17:33:34 10° ENE
ATLAS 2AS CENTAUR R/B 3.6 17:25:06 10° WSW 17:32:55 58° NW 17:40:35 10° NE
Cosmos 1674 4.1 17:29:58 10° SSW 17:33:36 40° WNW 17:37:15 10° N
Cosmos 1833 Rocket 4.5 17:33:28 10° N 17:35:50 13° NNE 17:38:12 10° ENE
Cosmos 2142 Rocket 4.5 17:30:23 10° N 17:36:33 66° ENE 17:42:38 10° SSE
Meteor 1-24 Rocket 3.7 17:32:52 10° S 17:38:06 59° E 17:43:18 10° NNE
SeaSat 1 3.9 17:33:41 10° NNE 17:38:08 34° NW 17:42:32 10° WSW
OPS 8737 4.5 17:35:54 10° NNW 17:38:59 57° NE 17:42:54 10° SE
Cosmos 773 Rocket 3.9 17:38:05 10° NNW 17:43:17 84° ENE 17:48:25 10° SSE
Landsat 5 3.5 17:39:32 10° NNE 17:43:29 78° WNW 17:47:20 10° SSW
Cosmos 1939 Rocket 3.2 17:39:41 10° SE 17:43:37 46° ENE 17:47:32 10° N
Cosmos 2058 Rocket 3.6 17:42:27 10° N 17:46:41 39° ENE 17:50:54 10° SE
CZ-4C R/B 3.2 17:41:56 10° WSW 17:46:50 40° NW 17:52:45 10° NE
H-2A R/B 3.0 17:43:15 10° ESE 17:47:12 24° ENE 17:51:14 10° N
CZ-2C R/B 3.6 17:45:39 10° SE 17:50:39 42° ENE 17:55:54 10° N
Cosmos 1315 Rocket 3.1 17:46:56 10° NNW 17:50:54 73° W 17:54:54 10° S
Cosmos 2227 4.5 17:46:27 10° SW 17:52:05 71° WNW 17:57:48 10° NNE
COSMOS 2455 3.1 17:46:25 10° S 17:52:11 50° ESE 17:58:00 10° NE
Cosmos 2227 Rocket 4.4 17:50:04 10° W 17:53:53 18° NW 17:57:44 10° N
Cosmos 1626 3.2 17:51:25 10° SSW 17:54:59 46° WNW 17:58:34 10° N
Feng Yun 1-1 Rocket 4.3 17:50:55 10° SE 17:56:14 58° ENE 18:01:41 10° N
MOS 1 Rocket 3.9 17:53:11 10° NNE 17:56:58 29° E 18:00:43 10° SSE
CZ-4 R/B 2.3 17:54:37 10° SE 17:58:07 28° ENE 18:01:33 10° N
Cosmos 1844 Rocket 3.4 17:53:17 10° SSE 17:58:17 33° ESE 18:03:17 10° NE
Cosmos 1726 Rocket 3.5 17:55:11 10° N 17:59:35 80° E 18:03:58 10° SSE
CZ-4C R/B 4.1 17:56:42 10° N 17:59:41 40° WNW 18:02:40 10° SW
Cosmos 1818 4.3 17:55:19 10° S 18:00:09 34° ESE 18:04:19 14° NE
USA 234 3.9 17:55:48 12° ENE 18:01:25 41° N 18:07:26 10° WNW
Okean 1-7 Rocket 4.1 17:58:14 10° SSE 18:02:28 39° E 18:06:45 10° NNE
CREW DRAGON DEMO-1 DEB 2.9 18:00:38 10° WNW 18:03:29 52° NNE 18:05:18 19° E
X-37B 2.4 18:05:34 10° SSW 18:08:03 21° SSE 18:09:46 14° ESE
Meteor 2-10 Rocket 3.5 18:03:01 10° N 18:08:35 69° ENE 18:13:50 10° SSE
CZ-4B R/B 4.1 18:06:25 10° S 18:11:49 54° W 18:17:22 10° NNW
CZ-4 R/B 4.4 18:13:23 10° SSE 18:17:28 63° ENE 18:21:35 10° N
COSMO-SKYMED 1 2.5 18:15:55 10° NNE 18:20:16 66° ESE 18:24:34 10° S
Cosmos 1538 Rocket 4.0 18:15:16 10° NNW 18:20:28 83° WSW 18:25:38 10° SSE
CZ-2D R/B 3.1 18:16:54 10° SSE 18:20:45 77° ENE 18:24:36 10° N
CSL-04 Rocket 4.3 18:18:09 10° SE 18:22:58 34° ENE 18:27:52 10° N
CSL-04 DEB 4.5 18:18:49 10° NNE 18:23:03 84° WNW 18:27:08 10° SSW
Cosmos 1777 Rocket 4.1 18:18:31 10° SSW 18:23:47 82° WNW 18:29:07 10° NNE
ATLAS 5 CENTAUR R/B 2.7 18:21:28 10° WSW 18:25:18 36° NW 18:29:12 12° NNE
Lacrosse 5 1.8 18:24:20 10° NW 18:29:25 89° NE 18:34:00 13° SE
ISS -3.2 18:28:14 10° SW 18:31:27 44° SSE 18:32:21 34° ESE
Aureole 3 2.8 18:28:13 10° N 18:31:43 56° ENE 18:34:43 10° SSE
SL-08 RB Rocket 4.5 18:36:35 29° ENE 18:36:35 29° ENE 18:40:22 10° N
Okean-O 2.5 18:32:47 10° SSE 18:37:09 63° ENE 18:41:34 10° N
Okean O Rocket 3.7 18:34:30 10° SSW 18:38:24 30° W 18:42:18 10° NW
Meteor 2-1 Rocket 4.1 18:35:00 10° N 18:40:36 81° ENE 18:46:07 10° SSE
Aureole 2 Rocket 2.1 18:38:12 10° SSW 18:41:13 78° WNW 18:42:23 35° NNE
Cosmos 2344 4.3 18:32:59 10° NW 18:41:39 55° NE 18:51:01 17° ESE
Helios 1A Rocket 2.9 18:39:53 10° SSE 18:43:56 56° ENE 18:48:00 10° N
Cosmos 1455 2.1 18:40:39 10° N 18:44:29 89° ESE 18:48:18 10° S
NOSS 3-1 (C) 4.1 18:38:41 10° NW 18:45:51 59° NE 18:51:58 20° ESE
Cosmos 2263 Rocket 3.8 18:43:29 10° WSW 18:48:27 30° NW 18:53:26 10° NNE
Cosmos 1689 Rocket 3.1 18:49:45 32° SSE 18:49:45 32° SSE 18:51:29 10° S
Cosmos 1602 Rocket 3.7 18:45:04 10° SSE 18:49:12 46° E 18:50:09 39° ENE
TELKOM 3 3.8 18:47:26 10° WSW 18:49:18 49° SW 18:49:18 49° SW
Cosmos 1340 4.4 18:46:45 10° SSE 18:48:06 19° SSE 18:48:06 19° SSE
H-2A R/B 4.1 18:46:46 10° N 18:50:33 28° WNW 18:54:15 10° WSW
YAOGAN 1 2.4 18:48:32 10° SSE 18:52:51 86° ENE 18:57:13 10° NNW
Cosmos 990 Rocket 4.2 18:51:55 10° S 18:56:54 48° ESE 18:58:08 40° ENE
ERS-2 2.1 18:55:04 25° N 18:57:07 79° WNW 19:00:44 10° SSW
Cosmos 1703 3.1 18:54:21 10° S 18:58:11 62° E 18:58:23 61° ENE
ARGOS 3.0 18:54:30 10° SSE 18:59:49 67° ENE 19:05:10 10° N
CZ-4B R/B 3.2 18:58:27 10° N 19:01:30 31° WNW 19:04:28 10° SW
USA 229 DEB 4.0 18:56:18 10° NW 19:03:24 56° NE 19:06:38 34° E
USA 229 4.0 18:56:25 10° NW 19:03:29 55° NE 19:06:40 34° E
COSMOS 2406 3.6 18:58:22 10° NNW 19:03:50 41° NE 19:04:20 40° ENE
Cosmos 1812 Rocket 3.4 19:02:04 10° N 19:06:29 73° E 19:10:50 10° SSE
USA 267 4.0 19:07:16 30° ESE 19:07:51 31° SE 19:13:29 10° S
CZ-2C R/B 2.9 19:08:10 45° E 19:08:23 45° E 19:13:44 10° S
SJ 16-02 1.6 19:04:51 10° SSW 19:09:13 66° WNW 19:11:32 27° N
DMSP B5D1-3 4.3 19:06:53 21° NNE 19:10:23 73° ESE 19:15:28 10° S
Cosmos 1092 Rocket 3.8 19:04:33 10° S 19:10:44 80° E 19:16:55 10° N
CSL-04 Debris 4.0 19:07:38 10° SSE 19:13:02 86° ENE 19:18:28 10° NNW
CZ-3B R/B 2.2 19:15:20 10° WNW 19:18:09 80° SSW 19:20:08 39° SE
NOSS 3-1 (A) 4.1 19:11:50 10° NW 19:19:01 60° NE 19:21:50 41° E
Cosmos 1833 Rocket 3.0 19:15:53 10° NNW 19:20:41 44° NE 19:20:41 44° NE
Cosmos 1844 3.8 19:17:39 10° SW 19:23:18 73° WNW 19:26:16 30° NNE
ATLAS 2AS CENTAUR R/B 4.4 19:18:58 10° WNW 19:25:34 28° NNW 19:29:35 18° NNE
Cosmos 2082 Rocket 3.4 19:20:30 10° NNW 19:23:58 27° NNE 19:23:58 27° NNE
H-2A R/B 2.7 19:21:25 10° S 19:26:17 54° W 19:31:18 10° NNW
Cosmos 1898 Rocket 3.3 19:23:34 10° SSW 19:28:49 76° ESE 19:28:59 75° E
Cosmos 1680 Rocket 3.8 19:23:51 10° NNW 19:29:04 64° WSW 19:34:06 10° S
CZ-4 R/B 3.3 19:29:26 10° SSW 19:33:04 30° W 19:36:39 10° NNW
CZ-4C R/B 4.2 19:32:48 10° NW 19:37:13 21° N 19:39:06 19° NNE
Cosmos 2098 Rocket 4.2 19:31:05 10° S 19:38:14 83° E 19:45:42 10° N
COSMOS 2455 4.0 19:32:41 10° WSW 19:38:17 39° NW 19:41:35 22° N
Cosmos 1844 Rocket 3.6 19:36:37 10° SW 19:42:03 45° NW 19:44:59 25° N
Iridium 4 Rocket 4.1 19:37:23 10° N 19:43:00 61° W 19:48:10 10° SSW
Cosmos 1818 4.3 19:38:20 10° WSW 19:43:35 49° NW 19:44:59 40° N
USA 234 3.3 19:43:09 56° NE 19:43:47 58° NNE 19:50:11 10° NW
X-37B 3.5 19:41:12 10° WSW 19:42:03 17° WSW 19:42:03 17° WSW
Meteor 1-11 4.2 19:42:22 10° S 19:47:21 69° S 19:47:21 69° S
Cosmos 2278 Rocket 4.1 19:48:03 10° S 19:49:25 18° S 19:49:25 18° S
Cosmos 44 4.0 19:52:16 10° SW 19:55:55 51° WSW 19:55:55 51° WSW
Cosmos 1553 Rocket 4.0 19:55:14 10° N 20:01:41 80° W 20:03:04 57° S
Cosmos 1937 Rocket 4.4 19:57:08 10° SSW 20:00:34 41° SSW 20:00:34 41° SSW
ISS -0.4 20:04:55 10° W 20:05:19 13° W 20:05:19 13° W
ATLAS 5 CENTAUR R/B 4.1 20:08:43 10° NW 20:10:44 15° NNW 20:10:44 15° NNW
Lacrosse 5 4.0 20:08:09 10° WNW 20:11:49 20° WSW 20:13:16 18° SSW
USA 281 4.5 20:39:39 30° NNW 20:39:39 30° NNW 20:42:47 10° NNW
CZ-2C R/B 4.4 20:49:39 29° W 20:49:39 29° W 20:53:24 10° SW
SJ 16-02 4.5 20:47:56 10° WNW 20:48:35 10° NW 20:48:35 10° NW
USA 267 4.5 20:54:38 33° SW 20:54:38 33° SW 20:57:57 10° WSW
